sat.trackr.live / text

‹ back to catalog

STARLINK-34483

NORAD 64367 · 2025-126Z

PAYLOAD ACTIVE UNKNOWN

§ Identity

Operator
Country
US
Launch date
2025-06-13
Launch site
AFWTR
Launch vehicle
Mass (kg)
RCS (m²)

Purposes: comms

External: N2YO · Heavens-Above · Gunter

§ Orbital elements

Epoch: 2026-05-25T02:55:45.797376Z

Period
96.11 min
Inclination
70.0004°
Eccentricity
0.0003967
Mean motion
14.98338660 rev/d
Perigee alt
569.3 km
Apogee alt
574.8 km
Semi-major
6,950.2 km
B*
2.0714e-4
RAAN
201.6184°
Arg perigee
263.8343°
Mean anomaly
96.2364°
Rev number
5,213

§ Raw data

STARLINK-344831 64367U 25126Z   26145.12205784  .00002380  00000+0  20714-3 0  99982 64367  70.0004 201.6184 0003967 263.8343  96.2364 14.98338660 52134

JSON: /api/v1/satellites/64367 · /tle

For live sub-satellite position, see the globe view (requires WebGL).

§ Visibility from observer

Set your observer location to see the next 7 days of passes ≥ 10°. The values pass through the URL so the page stays shareable.

No JS? Fill the form by hand. The geolocation button needs JavaScript.